User: anonymous   Login
Location: Newark
(44.6768°N, 22.5302°E)
Time: 21:44:16
(UTC+00:00)
Language:

FALCONSAT 3 - Orbit

View from above orbital plane
View from above orbital plane
View from above satellite
View from above satellite

Ground track
Ground track

The orbit data is extracted from the following two-line orbital elements,

1 30776U 07006E   22179.43989512  .00021698  00000-0  32331-3 0  9999
2 30776  35.4290 188.2596 0003791 205.1285 154.9263 15.54158011851296
Epoch (UTC): 28 June 2022 10:33:26
Eccentricity: 0.0003791
inclination: 35.4290°
perigee height: 402 km
apogee height: 407 km
right ascension of ascending node: 188.2596°
argument of perigee: 205.1285°
revolutions per day: 15.54158011
mean anomaly at epoch: 154.9263°
orbit number at epoch: 85129

The dashed part of the orbit path shows where the satellite is in the earth's shadow,  

DLR